Voltar ao catálogo

OPS 7613

P/L 4

AtivoNavegaçãoLEO
NORAD 4237·PAYLOAD·🇺🇸 United States

Lançado Sep 30, 1969 de Vandenberg Space Force Base

Loading…

Próximas Passagens (próximas 24 horas)

TLE

AtualizadoSource: Space-Track

Época: Sep 14, 2026, 07:01 UTC

1 04237U 69082E   26257.29267995 -.00000001  00000-0  37500-4 0  9993
2 04237  70.0128 273.5363 0020132   5.9239   5.8400 13.96007537898745

Acompanhe OPS 7613 em tempo real com AllMySat

Download on the App Store